Location: Unspecified
(42.2730°N, 83.7130°W)
Time: 14:13:36
(UTC+00:00)

SL-16 R/B - Pass Details

Date: 14 December 2025
Orbit: 984 x 1007 km, 99.8° (Epoch: 17 January)

Event Time Altitude Azimuth Distance (km) Brightness Sun altitude
Rises 23:15:01 0° 7° (N) 3,727 5.3 -12.8°
Reaches altitude 10° 23:17:41 10° 359° (N) 2,771 4.7 -13.3°
Maximum altitude 23:23:15 36° 296° (WNW) 1,515 3.9 -14.2°
Drops below altitude 10° 23:28:47 10° 232° (SW) 2,743 6.0 -15.2°
Sets 23:31:25 0° 224° (SW) 3,685 6.6 -15.7°
